Location: Unspecified
(0.0000°N, 0.0000°E)
Time: 08:37:56
(UTC+00:00)

Tiros 1 despin weight - All Passes

Search period start: 11 February 2026 00:00
Search period end: 21 February 2026 00:00
Orbit: 557 x 594 km, 48.2° (Epoch: 8 February)

Date Brightness Start Highest point End Pass type
(mag) Time Alt. Az. Time Alt. Az. Time Alt. Az.
11 Feb - 01:21:57 10° NNE 01:23:51 13° NE 01:25:46 10° ENE night (unlit)
11 Feb - 03:00:09 10° WNW 03:04:17 43° SW 03:08:29 10° SSE night (unlit)
11 Feb - 13:22:29 10° S 13:25:17 17° SE 13:28:04 10° E daylight
11 Feb - 15:01:59 10° WSW 15:05:42 30° NW 15:09:23 10° N daylight
12 Feb - 01:22:53 10° N 01:26:23 24° NE 01:29:55 10° ESE night (unlit)
12 Feb - 03:03:23 10° WNW 03:06:49 22° SW 03:10:16 10° S night (unlit)
12 Feb - 13:23:59 10° SSW 13:27:49 32° SE 13:31:37 10° ENE daylight
12 Feb - 15:05:42 10° W 15:08:14 15° NW 15:10:45 10° NNW daylight
13 Feb - 01:24:44 10° NNW 01:28:53 47° NE 01:33:06 10° SE night (unlit)
13 Feb - 03:07:44 10° WSW 03:09:22 12° SW 03:11:01 10° SSW night (unlit)
13 Feb - 13:26:05 10° SSW 13:30:20 68° SE 13:34:31 10° NE daylight
14 Feb - 01:27:03 10° NW 01:31:22 84° SW 01:35:46 10° SE night (unlit)
14 Feb - 13:28:37 10° SW 13:32:49 57° NW 13:36:57 10° NNE daylight
14 Feb - 23:51:21 10° NNE 23:53:26 13° NE 23:55:33 10° E night (unlit)
15 Feb - 01:29:48 10° WNW 01:33:51 40° SW 01:37:59 10° SSE night (unlit)
15 Feb - 11:51:53 10° S 11:54:52 18° SE 11:57:50 10° E daylight
15 Feb - 13:31:37 10° WSW 13:35:17 28° NW 13:38:55 10° N daylight
15 Feb - 23:52:22 10° N 23:55:56 25° NE 23:59:32 10° ESE night (unlit)
16 Feb - 01:33:04 10° W 01:36:21 21° SW 01:39:41 10° S night (unlit)
16 Feb - 11:53:26 10° SSW 11:57:22 35° SE 12:01:16 10° ENE daylight
16 Feb - 13:35:23 10° W 13:37:47 15° NW 13:40:10 10° NNW daylight
16 Feb - 23:54:15 10° NNW 23:58:24 50° NE 00:02:37 10° SE night (unlit)
17 Feb - 01:37:42 10° WSW 01:38:53 11° SW 01:40:05 10° SSW night (unlit)
17 Feb - 11:55:33 10° SW 11:59:50 73° SE 12:04:04 10° NE daylight
17 Feb - 23:56:35 10° NW 00:00:51 79° SW 00:05:12 10° SE night (unlit)
18 Feb - 10:21:39 10° SE 10:21:48 10° SE 10:21:56 10° SE daylight
18 Feb - 11:58:05 10° SW 12:02:17 53° NW 12:06:26 10° NNE daylight
18 Feb - 22:20:39 10° NNE 22:22:54 14° NE 22:25:09 10° E night (unlit)
18 Feb - 23:59:20 10° WNW 00:03:18 38° SW 00:07:21 10° SSE night (unlit)
19 Feb - 10:21:09 10° S 10:24:19 20° SE 10:27:26 10° E daylight
19 Feb - 12:01:06 10° WSW 12:04:44 26° NW 12:08:19 10° N daylight
19 Feb - 22:21:46 10° N 22:25:22 26° NE 22:29:00 10° ESE night (unlit)
20 Feb - 00:02:38 10° W 00:05:47 20° SW 00:08:57 10° S night (unlit)
20 Feb - 10:22:45 10° SSW 10:26:47 37° SE 10:30:45 10° ENE daylight
20 Feb - 12:04:56 10° W 12:07:12 14° NW 12:09:26 10° NNW daylight
20 Feb - 22:23:39 10° NNW 22:27:48 53° NE 22:32:00 10° SE night (unlit)
